Regional Weather Roundup
Issued by NWS Columbia, SC

Home | Current Version | Previous Version | Text Only | Print | Product List | Glossary On
Versions: 1 2 3 4 5 6 7 8 9 10 11 12 13 14 15 16 17 18 19 20 21 22 23 24 25 26 27 28 29 30 31 32 33 34 35 36 37 38 39 40 41 42 43 44 45 46 47 48 49 50
000
ASUS42 KCAE 251510
RWRCAE
REGIONAL WEATHER ROUNDUP
NATIONAL WEATHER SERVICE COLUMBIA SC
1100 AM EDT MON SEP 25 2017

NOTE: "FAIR" INDICATES FEW OR NO CLOUDS BELOW 12,000 FEET WITH NO
SIGNIFICANT WEATHER AND/OR OBSTRUCTIONS TO VISIBILITY.

NOT ALL STATIONS ARE QUALITY CONTROLLED BY THE NATIONAL
WEATHER SERVICE. USE DATA WITH CAUTION...ESPECIALLY
DEWPOINT OBSERVATIONS.

SCZ001>056-GAZ040-063>065-077-251600-
...UPSTATE SOUTH CAROLINA...

CITY           SKY/WX    TMP DP  RH WIND       PRES   REMARKS
ANDERSON       MOSUNNY   77  62  59 NE10      30.05S
LIBERTY        CLOUDY    78  63  61 NE6       30.06S
SPARTANBURG    MOSUNNY   77  61  57 N9        30.05F
CLEMSON        CLOUDY    77  64  64 NE7       30.07S
GREENVILLE     CLOUDY    78  60  53 NE9       30.07F
GREENWOOD      PTSUNNY   78  63  59 N13       30.05S
GREER          CLOUDY    78  62  57 NE9       30.06F
ROCK HILL        N/A    N/A N/A N/A MISG      30.05S
CHESTER        MOSUNNY   75  61  60 N12       30.04S
LAURENS        MOSUNNY   77  63  61 NE9       30.04F


...CENTRAL SOUTH CAROLINA...

CITY           SKY/WX    TMP DP  RH WIND       PRES   REMARKS
COLUMBIA APT   PTSUNNY   79  62  56 N10       29.99S
COLUMBIA OWENS PTSUNNY   77  61  57 VRB3      30.00S
MCENTIRE ANGB  PTSUNNY   76  61  60 N6        29.98F
ORANGEBURG     CLOUDY    77  60  55 NE10      29.97F
SUMTER SHAW    PTSUNNY   78  60  54 NE16      29.95F
NEWBERRY       MOSUNNY   77  63  61 N9        30.06S
AIKEN          FAIR      77  61  57 NE13      30.03F
BARNWELL       FAIR      79  63  57 NE13      29.98S
MANNING        FAIR      73  64  73 MISG      29.96F
CAMDEN         FAIR      79  61  53 NE10G17   30.00S
LANCASTER      CLOUDY    75  64  69 N5        30.03S
WINNSBORO      CLOUDY    73  63  68 N7        30.01S


...EASTERN AND COASTAL SOUTH CAROLINA...

CITY           SKY/WX    TMP DP  RH WIND       PRES   REMARKS
MYRTLE BEACH   CLOUDY    72  67  84 N13       29.95F
N MYRTLE BCH   CLOUDY    72  68  87 N10       29.94S
CONWAY         CLOUDY    70  64  83 N7        29.96S
MARION         PTSUNNY   72  64  78 NE14      29.97S
HARTSVILLE     FAIR      77  59  53 N10       29.98F
FLORENCE       MOSUNNY   75  64  68 NE14      29.97F
DARLINGTON     MOSUNNY   76  65  68 N9        29.99F
CHARLESTON APT CLOUDY    76  68  76 N8        29.93F
MOUNT PLEASANT FAIR      75  70  83 NW7       29.92F
WALTERBORO     CLOUDY    77  64  65 NE6       29.96S
BEAUFORT       PTSUNNY   78  69  73 N9        29.93F


...EASTERN GEORGIA...

CITY           SKY/WX    TMP DP  RH WIND       PRES   REMARKS
AUGUSTA BUSH F CLOUDY    77  63  61 NE8       29.98F
AUGUSTA DANIEL CLOUDY    79  62  56 MISG      30.00F
THOMSON        CLOUDY    74  63  68 E5        30.07S
WASHINGTON     FAIR     N/A N/A N/A NE3       30.03S
CLAXTON        FAIR      82  65  56 N9        29.96S
SYLVANIA       PTSUNNY   76  68  76 NE6       29.98S
STATESBORO     MOSUNNY   78  62  58 N6        29.96F
SAVANNAH       PTSUNNY   79  67  66 N8        29.94F


...SOUTHERN NORTH CAROLINA...

CITY           SKY/WX    TMP DP  RH WIND       PRES   REMARKS
CHARLOTTE      PTSUNNY   79  66  64 N10       30.05F
MONROE         PTSUNNY   77  64  64 N12       30.02F
WADESBORO      MOSUNNY   77  62  59 N7        30.01F
RUTHERFORDTON  CLOUDY    76  64  64 N3        30.09F
ASHEVILLE      MOSUNNY   73  60  63 NW5       30.14F

$$



USA.gov is the U.S. government's official web portal to all federal, state and local government web resources and services.